Location: Austin
(30.3000°N, 97.7500°W)
Time: 01:47:55
(UTC-06:00)

Cosmos 2219 - Pass Details

Date: 20 November 2023
Orbit: 833 x 859 km, 71.1° (Epoch: 04 December)

Event Time Altitude Azimuth Distance (km) Brightness Sun altitude
Rises 19:34:43 0° 205° (SSW) 3,367 6.8 -26.2°
Reaches altitude 10° 19:37:09 10° 208° (SSW) 2,434 6.0 -26.8°
Maximum altitude 19:42:42 68° 291° (WNW) 895 3.4 -28.0°
Enters shadow 19:43:57 52° 349° (N) 1,031 3.6 -28.2°
